#timestamp,LO_Frequency,Hit,StdDev 
1609351215.8,286046998.2,N
1609351235.7,286046998.9,N
1609351255.5,286046998.4,N
1609351275.4,286046998.3,N
1609351295.2,286046998.8,N
1609351315.0,286046998.4,N
1609351315.9,286046998.4,N
1609351335.8,286046999.3,N
1609351355.6,286046998.8,N
1609351375.5,286046999.1,N
1609351395.3,286046998.5,N
1609351415.1,286046998.3,N
1609351435.9,286046998.8,N
1609351455.7,286046998.3,N
1609351475.5,286046998.5,N
1609351495.4,286046998.8,N
1609351515.2,286046998.8,N
1609351535.1,286046998.6,N
1609351536.0,286046998.6,N
1609351555.8,286046998.2,Y
1609351575.6,286046999.9,P
1609351595.5,286047002.7,P
1609351615.3,286047000.2,N
1609351635.2,286047000.3,N
1609351655.9,286047000.4,N
1609351675.7,286046999.8,N
1609351695.6,286046999.9,N
1609351715.4,286047000.4,N
1609351735.2,286047002.4,N
1609351755.1,286047002.4,N
1609351756.0,286047002.4,N
1609351775.8,286047000.0,N
1609351795.7,286047000.1,N
1609351815.5,286047000.9,N
1609351835.3,286047000.2,N
1609351855.2,286046999.9,N
1609351875.0,286047000.2,N
1609351875.9,286047000.2,N
1609351895.8,286047002.8,N
1609351915.6,286047002.3,N
1609351935.4,286047000.3,N
1609351955.3,286047000.6,N
1609351975.1,286047002.8,N
1609351995.8,286046999.8,N
1609352015.7,286047000.1,N
1609352035.5,286047000.2,N
1609352055.4,286047000.0,N
1609352075.2,286047000.0,N
1609352095.0,286047000.2,N
1609352095.9,286047000.2,N
1609352115.8,286047000.4,N
1609352135.6,286047000.6,N
1609352155.4,286047000.5,N
1609352175.3,286047001.0,N
1609352195.1,286047000.2,N
1609352215.9,286047001.5,N
1609352235.7,286047002.1,N
1609352255.5,286047002.3,N
1609352275.4,286047002.2,N
1609352295.2,286047000.5,N
1609352315.0,286047002.2,N
1609352316.0,286047002.2,N
1609352335.8,286047000.3,N
1609352355.6,286047000.6,N
1609352375.5,286046999.7,N
1609352395.3,286047002.6,N
1609352415.1,286047002.1,N
1609352435.9,286047002.7,N
1609352455.7,286046999.9,N
1609352475.6,286047002.7,N
1609352495.4,286047002.7,N
1609352515.2,286047002.8,N
1609352535.1,286047002.7,N
1609352536.0,286047002.7,N
1609352555.8,286047002.6,N
1609352575.7,286047002.3,N
1609352595.5,286047000.0,N
1609352615.3,286047002.3,N
1609352635.2,286047000.4,N
1609352655.0,286047000.1,N
1609352655.9,286047000.1,N
1609352675.7,286047002.4,N
1609352695.6,286047002.5,N
1609352715.4,286047002.2,N
1609352735.3,286047000.5,N
1609352755.1,286047000.6,N
1609352756.0,286047000.6,N
1609352775.8,286046999.8,N
1609352795.7,286047000.9,N
1609352815.5,286047001.0,N
1609352835.4,286047000.5,N
1609352855.2,286047000.5,N
1609352875.0,286047001.0,N
1609352875.9,286047001.0,N
1609352895.8,286046999.8,N
1609352915.6,286046999.8,N
1609352935.4,286047000.0,N
1609352955.3,286047000.9,N
1609352975.1,286047000.9,N
1609352995.9,286047000.9,N
1609353015.7,286047000.4,N
1609353035.5,286047000.0,N
1609353055.4,286046999.9,N
1609353075.2,286047000.5,N
1609353095.1,286047000.5,N
1609353096.0,286047000.5,N
1609353115.8,286047000.5,N
1609353135.6,286047000.9,N
1609353155.5,286047000.6,N
1609353175.3,286047000.2,N
1609353195.2,286047000.2,N
1609353215.9,286046999.9,N
1609353235.7,286047000.4,N
1609353255.6,286047000.0,N
1609353275.4,286047000.0,N
1609353295.2,286047000.0,N
1609353315.1,286047002.2,Y
1609353316.0,286047002.2,P
1609353365.9,286047002.3,E
1609353375.8,286047000.7,N
1609353395.6,286046999.5,P
1609353415.5,286046998.9,N
1609353435.3,286046996.9,Y
1609353455.1,286046999.1,P
1609353475.9,286046999.1,P
1609353495.7,286046998.6,P
1609353515.6,286046996.5,Y
1609353535.4,286046998.4,P
1609353555.2,286047000.8,N
1609353575.1,286046999.0,N
1609353576.0,286046999.0,N
1609353595.8,286046999.0,N
1609353615.6,286046998.9,N
1609353635.5,286046998.5,N
1609353655.3,286046999.4,N
1609353675.2,286046998.6,N
1609353695.9,286046998.4,N
1609353715.7,286046998.5,N
1609353735.6,286047001.2,N
1609353755.4,286046999.2,N
1609353775.3,286046998.6,N
1609353795.1,286046999.4,N
1609353796.0,286046999.4,N
1609353815.8,286046999.1,N
1609353835.7,286046998.4,N
1609353855.5,286046999.1,N
1609353875.4,286046998.6,N
1609353895.2,286046999.3,N
1609353915.0,286046999.0,N
1609353915.9,286046999.0,N
1609353935.8,286046999.0,N
1609353955.6,286046999.4,N
1609353975.4,286046998.3,N
1609353995.3,286046999.4,N
1609354015.1,286046998.9,N
1609354035.9,286046998.7,N
1609354055.7,286046999.4,N
1609354075.5,286046999.1,N
1609354095.4,286046999.4,N
1609354115.2,286046999.4,N
1609354135.1,286046998.3,Y
1609354136.0,286046998.3,P
1609354155.8,286047002.8,P
1609354175.6,286047002.8,N
1609354195.5,286047000.7,N
1609354215.3,286047001.1,N
1609354235.1,286047000.6,N
1609354255.9,286047000.0,N
1609354275.7,286047001.1,N
1609354295.6,286047001.0,N
1609354315.4,286047000.7,N
1609354335.2,286047000.9,N
1609354355.1,286047000.6,N
1609354356.0,286047000.6,N
1609354375.8,286047000.0,N
1609354395.7,286047000.3,N
1609354415.5,286047000.9,N
1609354435.3,286046999.8,N
1609354455.2,286047000.6,N
1609354475.9,286047000.2,N
1609354495.7,286046999.8,N
1609354515.6,286046999.9,N
1609354535.4,286047001.0,N
1609354555.3,286047000.4,N
1609354575.1,286047000.9,N
1609354576.0,286047000.9,N
1609354595.8,286047000.5,N
1609354615.7,286046999.9,N
1609354635.5,286046999.7,N
1609354655.3,286047002.4,N
1609354675.2,286047000.1,N
1609354695.0,286047000.7,N
1609354695.9,286047000.7,N
1609354715.8,286046999.9,N
1609354735.6,286046999.9,N
1609354755.4,286047002.8,Y
1609354775.3,286047000.1,P
1609354795.1,286046999.9,N
